Hourly Data Report for May 21, 2019

MIRAMICHI RCS
NEW BRUNSWICK
Current Station Operator: ECCC - MSC

47°00'34.000" N
65°27'54.000" W
33.00 m
8100989
71744
ACQ

Download Data

Hourly Data (May 2019)
Hourly Data Report for May 21, 2019
TIME
LST
Temp Definition
°C
Dew Point Definition
°C
Rel Hum Definition
%
Precip. Amount Definition
mm

Wind Dir Definition
10's deg

Wind Spd Definition
km/h
Visibility Definition
km
Stn Press Definition
kPa
Hmdx Definition


Wind Chill Definition


Weather Definition


00:00 5.2 4.6 96 0.2 7 10   100.06     LegendNANA
01:00 5.1 4.6 97 0.0 2 5   100.04     LegendNANA
02:00 5.2 4.7 97 0.0 4 8   99.93     LegendNANA
03:00 4.9 4.5 97 0.0 4 10   99.88     LegendNANA
04:00 4.8 4.2 96 0.0 4 14   99.84     LegendNANA
05:00 4.6 4.1 96 0.2 5 13   99.81     LegendNANA
06:00 4.8 4.3 96 0.0 6 17   99.81     LegendNANA
07:00 4.9 4.4 97 0.0 6 21   99.69     LegendNANA
08:00 4.9 4.3 96 0.0 6 21   99.73     LegendNANA
09:00 4.6 4.0 96 0.3 5 19   99.67     LegendNANA
10:00 4.7 4.1 96 0.2 5 12   99.61     LegendNANA
11:00 4.6 3.9 96 0.8 3 15   99.53     LegendNANA
12:00 4.6 3.8 94 2.4 3 14   99.53     LegendNANA
13:00 4.8 3.8 93 2.6 4 15   99.49     LegendNANA
14:00 5.3 4.3 93 2.0 2 11   99.48     LegendNANA
15:00 5.1 3.8 91 1.0 2 12   99.50     LegendNANA
16:00 4.8 3.6 92 3.2 2 12   99.58     LegendNANA
17:00 4.0 2.7 91 2.7 1 14   99.65     LegendNANA
18:00 3.7 2.6 92 1.1 1 16   99.74     LegendNANA
19:00 3.5 2.3 92 0.5 1 18   99.86     LegendNANA
20:00 2.8 1.8 93 0.8 35 12   99.99     LegendNANA
21:00 2.7 1.7 93 1.2 1 11   100.11     LegendNANA
22:00 3.4 2.3 93 0.3 36 11   100.17     LegendNANA
23:00 4.0 2.8 92 0.0 35 10   100.25     LegendNANA

Notes on Data Quality.

Legend

  • E = Estimated
  • M = Missing
  • NA = Not Available*
  • [empty] = Indicates an unobserved value
Date modified: